Location: Newark
(33.6439°N, 114.9881°W)
Time: 16:41:22
(UTC+00:00)

A-11 Canister half - Pass Details

Date: 26 August 2019
Orbit: 1527 x 1682 km, 47.3° (Epoch: 17 October)

Event Time Altitude Azimuth Distance (km) Brightness Sun altitude
Rises 03:53:44 0° 286° (WNW) 4,924 13.1 -20.1°
Reaches altitude 10° 03:59:45 10° 260° (W) 3,910 11.8 -21.2°
Maximum altitude 04:03:08 12° 239° (WSW) 3,718 11.3 -21.8°
Drops below altitude 10° 04:06:30 10° 219° (SW) 3,870 11.2 -22.4°
Sets 04:12:27 0° 191° (SSW) 4,815 11.4 -23.5°
